Informationen zur Loipe auf der Atzenberger Höhe
 
19.01.2019Höhe
ü. NN
ZeitTemperatur (°C)Nieder-
schlag
Luft-
feuchte
Luft-
druck
Wind
StationaktuellMinimumMaximumaktuellMaximum
Aldingen654 m22:26-6,1-10,0 (05:59)-2,0 (14:43)0,0 l/m²92%1016,35,6 km/h (2 Bft) SO14,8 km/h (3 Bft) S-SO (13:07)
Allmannsweiler625 m22:25-9,7-9,7 (22:20)-2,8 (15:25)0,0 l/m²93%1015,60,0 km/h (0 Bft) SO12,9 km/h (3 Bft) SW (13:50)
Allmendingen541 m22:25-9,0-10,2 (07:25)-3,4 (00:35)0,0 l/m²90%1015,90,0 km/h (0 Bft) S-SW16,1 km/h (3 Bft) SO (09:05)
Altshausen574 m22:25-8,4-8,4 (22:14)-2,3 (14:44)0,0 l/m²88%1011,60,0 km/h (0 Bft) W-SW11,3 km/h (2 Bft) N-NO (00:05)
Amstetten-Reutti663 m22:25-7,3-8,0 (06:10)-4,1 (14:40)0,0 l/m²94%1015,50,0 km/h (0 Bft) S-SO27,4 km/h (4 Bft) O (09:45)
Amtzell-Grenis677 m22:25-8,3-8,4 (22:15)-2,1 (14:15)0,0 l/m²88%1016,96,4 km/h (2 Bft) N-NO16,1 km/h (3 Bft) O-SO (00:00)
Aulendorf570 m22:25-8,2-8,2 (22:17)-2,5 (15:13)0,0 l/m²86%1015,00,0 km/h (0 Bft) S-SW14,5 km/h (3 Bft) NO (00:34)
Bad Krozingen233 m22:25-3,7-5,7 (08:50)0,4 (15:35)0,0 l/m²92%1015,30,0 km/h (0 Bft) O6,6 km/h (2 Bft) W-NW (13:25)
Bad Saulgau595 m22:25-7,9-7,9 (22:20)-1,9 (15:15)0,0 l/m²90%1014,41,6 km/h (1 Bft) W-NW12,9 km/h (3 Bft) W (07:00)
Bad Saulgau-Lampertsweiler627 m22:25-7,6-7,6 (22:25)-2,8 (00:00)0,0 l/m²88%1017,80,0 km/h (0 Bft) O-SO14,5 km/h (3 Bft) S-SO (10:50)
Bad Schussenried572 m22:25-6,9-7,1 (20:40)-2,6 (15:10)0,0 l/m²90%1013,80,0 km/h (0 Bft) SW11,3 km/h (2 Bft) O-NO (00:15)
Bergatreute615 m22:25-10,2-10,6 (22:10)-2,0 (14:20)0,0 l/m²94%1015,94,8 km/h (1 Bft) N12,9 km/h (3 Bft) O-NO (00:00)
Biberach (Riss), Boehringer533 m22:20-7,9-8,2 (22:00)-2,9 (00:00)0,0 l/m²94%1013,90,7 km/h (0 Bft) W-NW16,6 km/h (3 Bft) S (13:50)
Biberach (Riss), Realschule553 m22:25-9,2-9,2 (22:05)-3,2 (00:00)0,0 l/m²92%1016,80,0 km/h (0 Bft) O-SO16,1 km/h (3 Bft) W-SW (12:55)
Bodnegg-Rotheidlen677 m22:25-8,0-8,1 (06:20)-2,7 (14:25)0,0 l/m²93%1015,70,0 km/h (0 Bft) W-NW14,5 km/h (3 Bft) O (00:00)
Burgrieden523 m22:25-7,4-7,4 (22:25)-3,2 (00:00)0,0 l/m²87%1015,60,0 km/h (0 Bft) S12,9 km/h (3 Bft) S (17:35)
Burgrieden-Hochstetten510 m22:25-7,8-7,8 (22:20)-2,8 (23:00)0,0 l/m²91%1015,73,2 km/h (1 Bft) SO14,5 km/h (3 Bft) SO (08:15)
Donauwörth411 m22:25-6,6-6,6 (22:25)-0,8 (15:05)0,0 l/m²91%1015,90,0 km/h (0 Bft) O-SO22,5 km/h (4 Bft) O (10:45)
Ebersbach579 m22:25-8,7-8,8 (22:25)-2,6 (00:00)0,0 l/m²93%1016,40,0 km/h (0 Bft) O17,7 km/h (3 Bft) O-NO (00:00)
Ebersbach-Boos605 m22:25-9,1-9,1 (22:25)-2,5 (15:15)0,0 l/m²93%1016,30,0 km/h (0 Bft) O-SO22,5 km/h (4 Bft) O (00:05)
Ebersbach-Menzenweiler661 m22:25-6,9-6,9 (21:55)-3,1 (15:05)0,0 l/m²95%1016,16,4 km/h (2 Bft) O-NO29,0 km/h (5 Bft) O-NO (00:00)
Ehingen535 m22:25-8,5-8,5 (22:25)-3,7 (00:50)0,0 l/m²87%1015,80,0 km/h (0 Bft) W-SW12,8 km/h (3 Bft) W-SW (08:50)
Erlenmoos645 m22:25-9,2-9,2 (22:20)-2,6 (15:15)0,0 l/m²85%1015,80,0 km/h (0 Bft) O-NO0,0 km/h (0 Bft) W (00:00)
Ertingen569 m22:25-7,4-7,4 (22:25)-2,8 (15:20)0,0 l/m²90%1015,40,0 km/h (0 Bft) O-SO12,9 km/h (3 Bft) N-NO (07:10)
Friedrichshafen405 m22:25-5,2-5,2 (22:25)2,1 (15:25)0,0 l/m²88%1015,88,0 km/h (2 Bft) N-NO12,9 km/h (3 Bft) O (23:10)
Günzburg443 m22:20-6,9-7,1 (21:20)-2,2 (15:09)0,0 l/m²89%1013,10,0 km/h (0 Bft) W14,5 km/h (3 Bft) O-SO (09:25)
Höchsten802 m22:25-6,0-7,7 (08:35)-4,1 (14:50)0,0 l/m²93%1013,50,0 km/h (0 Bft) SO38,6 km/h (5 Bft) N-NO (00:35)
Horgenzell618 m22:25-5,1-5,2 (03:50)-3,7 (00:00)0,0 l/m²90%1013,48,0 km/h (2 Bft) O-NO19,3 km/h (3 Bft) NO (00:25)
Hoßkirch632 m22:25-8,8-8,8 (22:20)-2,7 (14:25)0,0 l/m²92%1014,70,0 km/h (0 Bft) SW20,9 km/h (4 Bft) O-NO (00:35)
Isny, Am Dreifingerbach695 m22:25-9,9-11,4 (06:00)-2,3 (15:05)0,0 l/m²90%1015,88,0 km/h (2 Bft) O8,0 km/h (2 Bft) O (22:25)
Isny, Weidachweg706 m22:25-11,0-11,7 (08:20)-1,3 (14:10)0,0 l/m²89%1017,33,2 km/h (1 Bft) O11,3 km/h (2 Bft) SW (02:20)
Kappel-Grafenhausen163 m22:20-3,4-4,9 (08:20)2,4 (14:45)0,0 l/m²90%1013,10,0 km/h (0 Bft) N6,4 km/h (2 Bft) N-NO (10:25)
Kirchberg an der Iller584 m22:25-8,2-8,3 (22:15)-3,2 (23:00)0,0 l/m²88%1005,40,0 km/h (0 Bft) SO8,0 km/h (2 Bft) S-SW (01:55)
Kißlegg-Staibshof709 m22:25-7,1-7,2 (08:10)-1,4 (15:20)0,0 l/m²96%1015,50,0 km/h (0 Bft) N-NO11,3 km/h (2 Bft) O-NO (00:00)
Kressbronn398 m22:28-4,9-5,1 (07:56)-0,4 (14:52)0,0 l/m²84%1014,50,0 km/h (0 Bft) NO12,9 km/h (3 Bft) NO (01:08)
Kreuzthal-Steinberg-Alpe930 m22:10-6,1-10,0 (08:00)2,6 (12:50)0,0 l/m²100%1015,00,4 km/h (0 Bft) O13,7 km/h (3 Bft) W-NW (00:00)
Kreuzthal-Steinberggipfel1040 m22:20-3,6-8,9 (07:50)0,1 (14:10)-84%1015,011,9 km/h (3 Bft) SW22,7 km/h (4 Bft) O-SO (00:40)
Kristberg im Montafon (AT)1425 m22:25-8,2-9,5 (05:20)3,1 (12:15)0,0 l/m²70%1015,33,2 km/h (1 Bft) N12,9 km/h (3 Bft) N (09:00)
Laupheim500 m22:25-7,4-7,4 (22:20)-3,2 (00:00)0,0 l/m²90%1015,14,8 km/h (1 Bft) SW14,5 km/h (3 Bft) S-SW (12:20)
Lindau-Insel420 m22:25-4,9-6,2 (08:30)1,4 (14:45)0,0 l/m²85%1014,93,2 km/h (1 Bft) N11,3 km/h (2 Bft) W (13:55)
Lindau-Stadt412 m22:25-5,5-6,8 (07:45)-0,4 (11:50)0,0 l/m²86%1015,24,8 km/h (1 Bft) NO9,7 km/h (2 Bft) N (01:10)
Maierhöfen im Allgäu733 m22:30-14,3-15,2 (08:10)1,6 (13:30)0,0 l/m²88%1017,00,0 km/h (0 Bft) SW4,8 km/h (1 Bft) O (01:45)
Maselheim-Sulmingen548 m22:25-8,9-8,9 (22:25)-3,7 (23:00)0,0 l/m²92%1017,23,2 km/h (1 Bft) O-SO12,9 km/h (3 Bft) O (23:05)
Mietingen-Baltringen528 m22:25-8,3-8,3 (22:25)-3,3 (00:00)0,0 l/m²88%1017,63,2 km/h (1 Bft) W12,9 km/h (3 Bft) SO (08:20)
Mindelheim-Apfeltrach620 m22:26-13,3-13,3 (22:19)-2,3 (14:59)0,2 l/m²88%1017,00,0 km/h (0 Bft) S6,4 km/h (2 Bft) NO (06:59)
Neresheim552 m22:00-6,1-6,1 (22:00)-3,8 (15:33)0,0 l/m²92%1012,20,0 km/h (0 Bft) S15,1 km/h (3 Bft) O-SO (09:22)
Neukirch570 m22:25-7,3-7,4 (07:10)-0,8 (13:00)0,0 l/m²92%1015,96,4 km/h (2 Bft) NO9,7 km/h (2 Bft) NO (23:30)
Ochsenhausen, Birkenstraße613 m22:25-10,7-10,7 (22:05)-3,5 (14:15)0,0 l/m²84%1016,43,2 km/h (1 Bft) O11,3 km/h (2 Bft) O-NO (08:05)
Ochsenhausen, Unt. Wiesen575 m22:25-10,6-10,6 (22:00)-3,7 (00:00)0,0 l/m²91%1017,39,7 km/h (2 Bft) S14,5 km/h (3 Bft) S-SO (08:05)
Ostrach619 m22:25-8,8-8,8 (22:15)-1,3 (14:40)0,0 l/m²92%1014,10,0 km/h (0 Bft) S-SO17,7 km/h (3 Bft) N-NO (23:00)
Ravensburg428 m22:25-6,1-6,1 (22:25)-0,4 (15:10)0,0 l/m²90%1015,08,0 km/h (2 Bft) N16,1 km/h (3 Bft) N-NO (01:45)
Ravensburg-Wernsreute511 m22:25-7,0-7,1 (22:25)-1,7 (15:25)0,0 l/m²91%1017,88,0 km/h (2 Bft) N22,5 km/h (4 Bft) N-NO (23:30)
Reichenbach an der Fils343 m22:25-5,9-5,9 (22:25)-1,8 (11:20)0,0 l/m²84%1017,314,5 km/h (3 Bft) SO24,1 km/h (4 Bft) O (20:10)
Reinstetten559 m22:25-10,8-10,8 (22:15)-3,2 (00:00)0,0 l/m²91%1016,34,8 km/h (1 Bft) S-SW17,7 km/h (3 Bft) SO (09:35)
Riedlingen530 m22:25-7,7-7,7 (22:20)-3,2 (15:25)0,0 l/m²91%1015,60,0 km/h (0 Bft) O-NO12,9 km/h (3 Bft) O-NO (00:45)
Schemmerhofen520 m22:25-8,7-8,7 (22:20)-3,0 (00:00)0,0 l/m²91%1015,40,0 km/h (0 Bft) SW12,9 km/h (3 Bft) N-NO (04:00)
Silbertal im Montafon (AT)884 m22:25-7,8-9,2 (06:40)-4,6 (14:50)0,0 l/m²90%1017,60,0 km/h (0 Bft) SO3,2 km/h (1 Bft) S-SO (02:00)
Tettnang466 m22:25-5,3-5,9 (07:35)-0,5 (14:55)0,0 l/m²86%1014,09,7 km/h (2 Bft) NO14,5 km/h (3 Bft) O (01:05)
Tuttlingen662 m22:25-7,1-9,6 (05:10)-3,9 (14:35)0,0 l/m²89%1015,61,6 km/h (1 Bft) O-SO11,3 km/h (2 Bft) O-SO (14:40)
Ummendorf547 m22:25-9,9-9,9 (22:00)-3,4 (01:30)0,0 l/m²89%1016,84,8 km/h (1 Bft) S-SO16,1 km/h (3 Bft) SW (13:05)
Ummendorf-Fischbach558 m22:25-10,9-10,9 (22:25)-3,9 (01:25)0,0 l/m²89%1017,30,0 km/h (0 Bft) S-SO14,5 km/h (3 Bft) O-NO (01:35)
Waldburg707 m22:25-7,8-7,8 (22:25)-3,2 (13:05)0,0 l/m²92%1015,30,0 km/h (0 Bft) N14,5 km/h (3 Bft) N (00:15)
Waltenhofen im Allgäu720 m22:25-13,2-13,7 (07:35)-0,8 (13:35)0,2 l/m²89%1016,40,0 km/h (0 Bft) S-SW4,8 km/h (1 Bft) S-SW (11:55)
Weingarten500 m22:25-8,0-8,0 (22:25)-1,5 (14:25)0,0 l/m²89%1015,50,0 km/h (0 Bft) O-NO8,0 km/h (2 Bft) O-NO (00:55)
Winterlingen785 m22:00-6,8-10,0 (07:00)-3,9 (16:00)0,0 l/m²96%1013,65,8 km/h (2 Bft) S7,2 km/h (2 Bft) S-SO (10:40)

niederschlagsdatenbank | info | login - erfassung

Sollten Sie Interesse haben, an der Niederschlagsdatenbank teilzunehmen, finden Sie > hier < weitere Informationen.
Datum: . . Kalender
Anmerkung:0,0 = nicht messbarer Niederschlag
 -  = kein Niederschlag
 k  = kumulierter Niederschlag

< 12.01.201914.01.2019 >


Niederschlagswerte vom 13.01.2019    -    derzeit 103 Stationen

Die Niederschlagswerte des gewählten Tages lassen sich durch Klicken auf das Datum sortieren.
Die Angaben sind in l/m².

Station10.01.11.01.12.01.13.01.14.01.15.01.16.01.Bemerkung 13.01.
Aichstetten-Nestbaum-------
Albbruck 0,5-22,538,54,8--
Ganzer Tag zeitweise ergiebiger Regen 5°C Nachts +4°C
Regen
Allmendingen-4,312,523,53,5--
Regen Schneeregen
Amstetten-Reutti0,66,010,831,02,0--
Regen Schneeregen Schnee
Schneehöhe: 28 cm
Aulendorf6,07,58,012,03,2--
Ablesung um 6:50 Uhr
Regen Schneeregen
Schneehöhe: 20 cm
Aulendorf-Blönried2,85,06,012,02,5--
Aulendorf-Zollenreute-4,52,012,5---
Regen Schneeregen Schnee
Schneehöhe: 20cm
Bad Buchau5,56,09,012,02,0--
Bad Saulgau Walserweg2,04,56,011,52,0--
Regen Schneeregen
Schneehöhe: 15 cm
Bad Saulgau-Hochberg-------
Bad Schussenried Konradstraße3,24,37,712,41,8--
Regen Nieselregen Schneeregen
Schneehöhe: 19 cm
Bad Schussenried Lortzingstrasse5,03,58,013,53,0--
Regen Schneeregen
Bad Schussenried Klosterstraße3,05,010,513,02,0--
Regen Schneeregen Schnee
Bad Schussenried Theodor-Storm-Strasse4,44,510,012,82,2--
Regen Schneeregen Schnee
Bad Schussenried-Hopferbach3,07,09,013,52,0--
Regen Schneeregen
Bad Schussenried-Schwaigfurt2,56,011,014,51,2--
Bad Waldsee-Haisterkirch5,110,99,017,31,0--
0/+3,5°C, DACHLAWINENWETTER: um die Mittagszeit einsetzender Schneefa [weiterlesen...]
Regen Schneeregen Schnee Bodennebel
Schneehöhe: 45 cm
Bad Wurzach-Dietmanns-------
Bad Wurzach-Seibranz7,76,55,517,02,0--
Schneehöhe: 64 cm
Baienfurt16,016,012,016,02,0--
Regen Schneeregen
Schneehöhe: 18 cm
Balzheim5,02,010,016,01,5--
Regen Schneeregen
Schneehöhe: 14 cm
Berg-Kleintobel11,04,98,214,82,1--
Regen Schneeregen
Schneehöhe: 21 cm
Biberach Amriswilstrasse5,04,07,514,71,5--
Regen Nieselregen Schneeregen Schnee
Schneehöhe: 18-20 cm
Biberach Strölinweg---32,0 k1,5--
von ca 20 cm stark getaut und verdichtet z T nur unterschiedlichen Res [weiterlesen...]
Regen Schneeregen Schnee
Biberach Erlenweg-------
Biberach Neue Heimat 5-------
Biberach Mittelbergstraße 94,04,010,014,52,0--
Regen
Schneehöhe: 16 cm Rest
Biberach-Bergerhausen2,04,09,015,51,5--
Regen Schneeregen Schnee
Bierstetten3,54,36,4----
Blaubeuren-Pappelau-21,019,030,0-3,0-
Sehr windig bis stürmisch
Regen Nieselregen Schneeregen Schnee
Schneehöhe: 39 cm
Bühlertal3,03,014,07,0---
Regen
Dettingen a. d. Iller-------
Dornstadt-Tomerdingen0,74,612,522,51,6-0,0
Schneehöhe: 18 cm
Dürnau3,54,55,510,02,0--
Regen Schneeregen Schnee
Eberhardzell Lilienweg6,96,29,714,01,20,10,0
Schneehöhe: 38 cm
Ebersbach-Roßwälden0,72,19,224,00,70,0-
Schneehöhe: 4 cm
Ehingen Rosenstraße0,33,015,422,03,00,00,0
Regen Schneeregen Schnee
Schneehöhe: 5 cm
Ehingen Zanderstraße2,5------
Ehingen Schlaufenbühl-3,610,330,72,7--
Regen Schneeregen Schnee
Schneehöhe: 13 cm
Ehingen Schillerstraße-3,013,019,92,0--
Regen Schneeregen
Schneehöhe: 2,5 cm Rest
Ehingen-Herbertshofen-------
Eislingen2,13,913,433,61,30,0-
Schneehöhe: Reste
Erbach-Bach1,02,511,016,02,7--
Regen Schneeregen Schnee
Schneehöhe: Reste
Erlenmoos6,95,212,918,23,1--
Regen Schnee
Schneehöhe: 44 cm
Füramoos0,00,00,011,75,50,70,0

Schneehöhe: 60 cm
Gutenzell-6,012,014,02,0--
Schneehöhe: 10cm
Gutenzell-Hürbel3,03,510,014,0---
Regen
Herbertingen Drosselweg3,52,57,511,52,5--
Tauwetter mit böig bis stürmischem Wind der Regen und Schneeregen im [weiterlesen...]
Regen Schneeregen
Schneehöhe: 8cm
Herbertingen Hirschstrasse3,02,06,010,01,0--
Regen Schneeregen
Schneehöhe: 10cm
Hochdorf-Schweinhausen-12,98,616,72,3--
Schneehöhe: 25 cm
Hohentengen-Bremen3,02,06,013,02,0--
Regen Schnee
Schneehöhe: 6,0
Horgenzell-Ringgenweiler4,24,59,717,82,9--
Regen
Schneehöhe: 31 cm
Hüttisheim3,03,013,015,02,0--
Regen Schneeregen
Schneehöhe: 5 cm
Illerkirchberg1,84,714,919,31,1--
Reste ist fast übertrieben, aber ein paar wenige Flecken gibts noch.
Regen Schneeregen Schnee
Schneehöhe: 4-5
Inzigkofen0,02,05,812,23,0--
Regen Schneeregen Schnee
Schneehöhe: 8 cm
Isny5,02,411,433,43,2--
Regen Schneeregen Schnee
Schneehöhe: 85 cm
Kirchberg6,04,48,014,02,2--
Regen Graupel
Schneehöhe: 26 cm
Kreuzthal-Steinberg-Alpe8,312,123,144,02,10,0-
Regen Schneeregen Schnee
Schneehöhe: 132 cm
Langenau2,03,010,520,04,51,0-
Schneeregen
Schneehöhe: Reste
Langenenslingen0,61,88,412,62,20,0-
Regen Nieselregen Schnee Schneegriesel
Schneehöhe: 7 cm
Leutkirch Unterer Auenweg 259,05,213,822,01,50,1-
Regen Schneeregen Schnee
Leutkirch Nachtigallenweg 2811,06,015,025,02,0--
Schneehöhe: 55cm
Leutkirch-Adrazhofen7,05,031,028,03,0--
Schneehöhe: 65 cm
Mietingen Seerosenweg 10-------
Mietingen-Walpertshofen-------
Mittelbiberach-Reute5,44,58,814,41,8--
Regen Schneeregen Schnee
Schneehöhe: 16 cm
Moosburg5,61,75,014,51,5--
Tauwetter, Nasskalt. Windig. Teils länger anhaltender Schneeregen, Re [weiterlesen...]
Regen Nieselregen Schneeregen
Schneehöhe: 15 cm
Münsingen-Rietheim2,85,211,826,86,0--
Regen Schneeregen Schnee
Schneehöhe: 48 cm
Neresheim1,54,75,414,66,1--
Schneeregen
Schneehöhe: 10 cm
Oberdischingen------16,8
Ochsenhausen5,11,22,311,92,8-0,6
Regen Schneeregen Schnee
Schneehöhe: 20 cm
Öpfingen1,13,28,819,02,0--
Regen Schnee
Schneehöhe: 8cm
Ostrach Uhlandweg-14,06,010,52,5--
Regen Nieselregen Schneeregen Schnee
Schneehöhe: 8 cm
Pfaffenhofen-Kadeltshofen5,04,09,011,02,0--
Schneehöhe: Schneefelderreste
Pfullendorf Am Schweizersbild ----1,0--
Rangendingen3,0-6,0-6,0--
Schneehöhe: Reste
Ravensburg Bleicherstraße5,97,110,912,02,6-1,3
Ravensburg-Schmalegg6,55,010,019,51,50,00,0
Ravensburg-Wernsreute1,62,27,823,02,0--
Regen Schneeregen
Schneehöhe: 1,0
Ravensburg-Weststadt5,58,010,521,02,0--
Regen
Schneehöhe: 10 cm
Riedhausen3,42,84,811,42,6--
Temp. +0,9°C / +4,3°C,Windböen SW 37,5 km/h
Regen
Schneehöhe: 10 - 12
Riedlingen-Neufra-------
Schelklingen-Gundershofen-7,022,025,05,0--
Temp. zw. +0,1°C und +3,3°C. Ganzer Tag nasser Schneefall. Am Abend [weiterlesen...]
Schneehöhe: 30 cm
Schemmerberg5,03,510,524,02,0-0,5
Schwörstadt0,21,012,236,23,2--
Regen
Sigmaringendorf-2,45,112,22,7--
Regen Schneeregen Schnee
Tuttlingen-Möhringen Eßlinger Straße0,00,43,217,6---
Regen Schneeregen Schnee
Schneehöhe: 11 cm
Ulm    neu  ----30,01,80,0
Ummendorf Tulpenweg3,07,811,519,02,00,0-
nicht gemessen, da zu uneinheitlich
Regen Schneeregen Schnee
Schneehöhe: 12 cm
Ummendorf Friedrich-Schiller-Str.-------
Uttenweiler-Ahlen2,83,88,212,02,0--
Regen
Vöhringen (Schwarzwald)-3,011,016,0-3,06,0
Waldburg7,58,510,519,54,5--
Schneehöhe: 61 cm
Wangen-Atzenberg-------
Wangen-Bergerhöhe8,47,817,031,93,8--
Regen Schneeregen Schnee
Schneehöhe: 65 cm
Warthausen An der Schloßhalde -------
Warthausen Schwabenwiesen -------
Warthausen-Barabein-5,011,014,02,0--
Regen
Weingarten Laurastraße11,08,59,015,02,0--
+ 1,4 ° C um 5.15 Uhr
Regen Nieselregen Schneeregen Schnee
Schneehöhe: 17 cm
Weingarten Hoyerstraße-------
Weingarten Marienstraße5,08,09,515,01,5--
Regen Schneeregen Schnee
Schneehöhe: 12 cm
Wolfegg-Veesers-------
Wolpertswende0,00,00,04,90,01,80,4
Regen Schneeregen
Schneehöhe: 25 cm

Stillgelegte Niederschlagsstationen    -    derzeit 46 Stationen

StationLetzte Meldung10.01.11.01.12.01.13.01.14.01.15.01.16.01.Bemerkung 13.01.
Allmannsweiler02.09.2014-------
Aulendorf-Rugetsweiler 25.07.2013-------
Bad Saulgau Willi-Burth-Straße19.09.2011-------
Bad Saulgau Eichendorffweg28.03.2013-------
Bad Saulgau Seewattenstraße 12815.01.2014-------
Bad Saulgau-Lampertsweiler18.02.2015-------
Bad Schussenried-Steinhausen26.09.2012-------
Bad Waldsee-Michelwinnanden31.12.2014-------
Bad Waldsee-Osterhofen06.03.2015-------
Bad Waldsee-Steinach10.11.2013-------
Bad Wurzach-Haidgau07.10.2012-------
Bad Wurzach-Ziegelbach07.11.2014-------
Bergatreute13.02.2012-------
Betzenweiler05.01.2017-------
Burgrieden28.10.2013-------
Burgrieden-Rot18.09.2013-------
Eberhardzell Schillerstraße05.07.2010-------
Ehingen Am Elzengraben17.06.2016-------
Gammertingen16.01.2016-------
Griesingen06.10.2015-------
Günzburg31.12.2010-------
Hoßkirch05.01.2018-------
Ingoldingen-Grodt19.11.2016-------
Kisslegg02.05.2011-------
Krauchenwies-Hausen23.11.2013-------
Kressbronn10.03.2010-------
Leutkirch-Ottmannshofen27.07.2012-------
Leutkirch-Rotis08.05.2016-------
Leutkirch-Wuchzenhofen19.09.2016-------
Mietingen Hangweg 1530.12.2017-------
Mössingen-Bästenhardt21.07.2014-------
Ostrach Heiligenberger Straße19.08.2013-------
Pfullendorf Ringstraße 18.03.2012-------
Ravensburg Olgastraße30.10.2016-------
Seltmans09.04.2013-------
Stuttgart-Bad Cannstatt03.02.2013-------
Stuttgart-Möhringen23.04.2017-------
Stuttgart-Rohr07.11.2012-------
Talheim21.08.2016-------
Tannheim22.10.2017-------
Tettnang-Ramsbach26.03.2011-------
Tuttlingen-Möhringen Belchenstraße01.01.2015-------
Ummendorf Bergstraße23.10.2017-------
Vogt22.05.2015-------
Weingarten Bischof-Sproll-Straße30.06.2011-------
Wilhelmsdorf Riedhauser Straße 28.10.2012-------
Wilhelmsdorf Seefeld20.08.2013-------
Wurmlingen14.10.2016-------
Die Niederschlagswerte des gewählten Tages lassen sich durch Klicken auf das Datum sortieren.
Die Angaben sind in l/m².

Wetterbeobachtungen Legende:

  • Regen
  • Nieselregen
  • Schneeregen
  • Schnee
  • Graupel
  • Eiskörner
  • Hagel
  • Bodennebel
  • Gewitter
  • Nebelnässe
  • Schneegriesel

Grafische Darstellung der Tagesniederschläge vom 13.01.2019

< 12.01.201914.01.2019 >Monats- und Jahresniederschlag


 
wetterstationen
wetterstationen
- derzeit 73 Stationen
niederschlagsdatenbank
wetterstationen
- kartographische Darstellung
niederschlagsdatenbank
niederschlagsstationen
- derzeit 103 Stationen
niederschlagsdatenbank
niederschlagsstationen
- kartographische Darstellung
 
 
Fr. 7.30 Uhr - Sa. 7.30 Uhr (MEZ)
1.Waldburg2,0 l/m²
2.Ulm1,5 l/m²
3.Amstetten-Reutti0,8 l/m²
4.Langenau0,5 l/m²
5.Dornstadt-Tomerdingen0,5 l/m²
6.Eberhardzell
Lilienweg
0,1 l/m²
7.Eislingen0,1 l/m²
8.Langenenslingen0,1 l/m²
9.Kreuzthal-Steinberg-Alpe0,0 l/m²
10.Ehingen
Rosenstraße
0,0 l/m²
11.Füramoos0,0 l/m²
12.Ehingen
Schillerstraße
0,0 l/m²
13.Ravensburg-Schmalegg0,0 l/m²
 
Sa. 19.01.2019 - 7.30 Uhr (MEZ)
1.Kreuzthal-Steinberg-Alpe108 cm
2.Isny54 cm
3.Leutkirch-Adrazhofen45 cm
4.Waldburg40 cm
5.Bad Wurzach-Seibranz39 cm
6.Münsingen-Rietheim34 cm
7.Schelklingen-Gundershofen24 cm
8.Eberhardzell
Lilienweg
19 cm
9.Bad Waldsee-Haisterkirch19 cm
10.Amstetten-Reutti18 cm
11.Ochsenhausen15 cm
12.Horgenzell-Ringgenweiler9 cm
13.Tuttlingen-Möhringen
Eßlinger Straße
8 cm
14.Ravensburg-Schmalegg7 cm
15.Langenenslingen2 cm
16.Ehingen
Schillerstraße
1 cm
17.Ulmalles wieder weg
18.WolpertswendeReste
19.Langenauca 1cm
20.Moosburgstark angezuckert
21.AulendorfReste
22.Öpfingen"Reste"
23.Weingarten
Marienstraße
Reste
24.BalzheimReste
25.Riedhausenr
26.Pfaffenhofen-KadeltshofenReste
27.Bad Saulgau
Walserweg
Reste
28.Weingarten
Laurastraße
Reste
 
  treffpunkt & service
--- Anzeigen --------------------------------
zugriffe:
insgesamt: 40.646.424
aktueller monat: 319.505
heute: 12.417
momentan online: 64
 
 
monatshöchstwert: 653.625
vorheriger monat: 400.931
gestern: 9.684
tageshöchstwert: 45.129
 
wetterwarte süd
 
konradstraße 3
info@wetterwarte-sued.com
roland roth
 
88427 bad schussenried